Location: Ferintosh
(52.7647°N, 112.9692°W)
Time: 19:43:50
(UTC+00:00)

Explorer 7 - Pass Details

Date: 30 May 2024
Orbit: 466 x 622 km, 50.3° (Epoch: 16 June)

Event Time Altitude Azimuth Distance (km) Brightness Sun altitude
Rises 05:22:50 0° 252° (WSW) 2,510 10.4 -10.5°
Reaches altitude 10° 05:24:59 10° 248° (WSW) 1,646 9.3 -10.6°
Maximum altitude 05:28:36 55° 171° (S) 594 6.6 -10.9°
Drops below altitude 10° 05:32:23 10° 93° (E) 1,713 9.0 -11.2°
Sets 05:34:40 0° 89° (E) 2,626 10.0 -11.3°
